Erie, PA

2:40 PM EDT on October 23, 2019 (GMT -0400)
Erie International

Weather History for KERI - August, 2019

Change the Weather History Date:

Friday, August 9, 2019

  Actual Average Record
Temperature  
Mean Temperature 70 °F 71 °F  
Max Temperature 78 °F 79 °F 90 °F (2009)
Min Temperature 62 °F 63 °F 51 °F (1958)
Degree Days  
Heating Degree Days 0 0  
Month to date heating degree days 0 0  
Since 1 June heating degree days 38 68  
Since 1 July heating degree days 0 7  
Cooling Degree Days 5 6  
Month to date cooling degree days 77 62  
Year to date cooling degree days 542 437  
Since 1 June cooling degree days 509 398  
Growing Degree Days 20 (Base 50)    
Moisture  
Dew Point 55 °F    
Average Humidity 61    
Maximum Humidity 78    
Minimum Humidity 43    
Precipitation  
Precipitation 0.00 in 0.12 in 2.08 in (2016)
Month to date precipitation 0.89 1.05  
Year to date precipitation 23.39 23.41  
Snow  
Snow 0.00 in 0.00 in - ()
Month to date snowfall 0.0 0.0  
Since 1 June snowfall 0.0 0.0  
Since 1 July snowfall 0.0 0.0  
Snow Depth 0.00 in    
Sea Level Pressure  
Sea Level Pressure 29.85 in    
Wind  
Wind Speed 9 mph (West)    
Max Wind Speed 18 mph    
Max Gust Speed 26 mph    
Visibility 10 miles    
Events      
T = Trace of Precipitation, MM = Missing Value Source: NWS Daily Summary

Daily Weather History Graph

Daily Weather History Graph

Search for Another Location

Airport or City:

Astronomy

Aug. 09, 2019 Rise Set
Actual Time 6:21 AM EDT 8:29 PM EDT
Civil Twilight 5:51 AM EDT 9:00 PM EDT
Nautical Twilight 5:13 AM EDT 9:38 PM EDT
Astronomical Twilight 4:31 AM EDT 10:19 PM EDT
Moon 4:10 PM EDT (8/9) 1:17 AM EDT (8/9)
Length of Visible Light 15h 09m
Length of Day
14h 07m
Waxing Gibbous, 70% of the Moon is Illuminated
Aug 9
Waxing Gibbous
Aug 15
Full
Aug 23
Last Quarter
Aug 30
New
Sep 5
First Quarter

Hourly Weather History & Observations

Time (EDT) Temp. Dew Point Humidity Pressure Visibility Wind Dir Wind Speed Gust Speed Precip Events Conditions
12:51 AM 69.1 °F 62.1 °F 78% 29.78 in 10.0 mi SSW 3.5 mph - N/A   Clear
1:51 AM 75.0 °F 54.0 °F 48% 29.78 in 10.0 mi NNW 11.5 mph 19.6 mph N/A   Scattered Clouds
2:51 AM 72.0 °F 59.0 °F 64% 29.79 in 10.0 mi North 12.7 mph - N/A   Mostly Cloudy
3:51 AM 71.1 °F 54.0 °F 55% 29.79 in 10.0 mi NNE 6.9 mph - N/A   Overcast
4:51 AM 70.0 °F 52.0 °F 53% 29.80 in 10.0 mi NNE 6.9 mph - N/A   Mostly Cloudy
5:51 AM 69.1 °F 51.1 °F 53% 29.81 in 10.0 mi NNE 6.9 mph - N/A   Partly Cloudy
6:51 AM 63.0 °F 55.0 °F 75% 29.84 in 10.0 mi SSW 4.6 mph - N/A   Mostly Cloudy
7:51 AM 66.0 °F 55.9 °F 70% 29.85 in 10.0 mi South 4.6 mph - N/A   Mostly Cloudy
8:51 AM 71.1 °F 53.1 °F 53% 29.86 in 10.0 mi Calm Calm - N/A   Overcast
9:51 AM 73.9 °F 53.1 °F 48% 29.86 in 10.0 mi WNW 8.1 mph - N/A   Mostly Cloudy
10:51 AM 75.0 °F 55.9 °F 51% 29.87 in 10.0 mi WNW 9.2 mph - N/A   Mostly Cloudy
11:51 AM 75.0 °F 54.0 °F 48% 29.88 in 10.0 mi WNW 12.7 mph - N/A   Partly Cloudy
12:51 PM 75.9 °F 55.0 °F 48% 29.88 in 10.0 mi West 10.4 mph 21.9 mph N/A   Clear
1:51 PM 77.0 °F 54.0 °F 45% 29.88 in 10.0 mi West 10.4 mph - N/A   Clear
2:51 PM 77.0 °F 53.1 °F 43% 29.87 in 10.0 mi West 13.8 mph 23.0 mph N/A   Clear
3:51 PM 77.0 °F 54.0 °F 45% 29.85 in 10.0 mi West 12.7 mph 23.0 mph N/A   Mostly Cloudy
4:51 PM 77.0 °F 55.0 °F 47% 29.86 in 10.0 mi West 13.8 mph 21.9 mph N/A   Partly Cloudy
5:51 PM 77.0 °F 55.0 °F 47% 29.86 in 10.0 mi West 12.7 mph 21.9 mph N/A   Partly Cloudy
6:51 PM 77.0 °F 54.0 °F 45% 29.86 in 10.0 mi WSW 12.7 mph 19.6 mph N/A   Clear
7:51 PM 75.0 °F 55.0 °F 50% 29.86 in 10.0 mi WSW 6.9 mph - N/A   Clear
8:51 PM 71.1 °F 55.9 °F 59% 29.86 in 10.0 mi SW 8.1 mph - N/A   Clear
9:51 PM 68.0 °F 55.9 °F 65% 29.88 in 10.0 mi SSW 6.9 mph - N/A   Clear
10:51 PM 66.9 °F 55.0 °F 66% 29.88 in 10.0 mi SW 6.9 mph - N/A   Clear
11:51 PM 66.9 °F 55.0 °F 66% 29.88 in 10.0 mi SSW 9.2 mph - N/A   Partly Cloudy